Location: Unspecified
(33.6682°S, 0.0000°E)
Time: 12:21:48
(UTC+00:00)

Vanguard 2 Rocket - Pass Details

Date: 26 June 2019
Orbit: 554 x 3326 km, 32.9° (Epoch: 22 July)

Event Time Altitude Azimuth Distance (km) Brightness Sun altitude
Rises 04:52:14 0° 330° (NNW) 7,195 11.3 -26.8°
Reaches altitude 10° 04:57:49 10° 338° (NNW) 6,266 11.0 -25.7°
Maximum altitude 05:14:37 34° 34° (NE) 4,243 10.6 -22.3°
Drops below altitude 10° 05:27:56 10° 91° (E) 5,038 11.8 -19.6°
Sets 05:31:44 0° 100° (E) 5,692 12.1 -18.8°
